Langley AFB, VA

7:30 PM EDT on April 25, 2017 (GMT -0400)
Langley Air Force Base

Weather History for KLFI - January, 2014

Change the Weather History Date:

Thursday, January 2, 2014

  Actual Average Record
Temperature  
Mean Temperature 42 °F -  
Max Temperature 48 °F 48 °F 75 °F (1985)
Min Temperature 36 °F 33 °F 18 °F (1940)
Degree Days  
Heating Degree Days 23    
Moisture  
Dew Point 39 °F    
Average Humidity 92    
Maximum Humidity 100    
Minimum Humidity 57    
Precipitation  
Precipitation 0.48 in - - ()
Sea Level Pressure  
Sea Level Pressure 29.72 in    
Wind  
Wind Speed 4 mph (NNW)    
Max Wind Speed 9 mph    
Max Gust Speed -    
Visibility 5 miles    
Events Rain    
Averages and records for this station are not official NWS values.
T = Trace of Precipitation, MM = Missing Value Source: NWS Daily Summary

Daily Weather History Graph

Daily Weather History Graph

Search for Another Location

Airport or City:

Trip Planner

Search our weather history database for the weather conditions in past years. The results will help you decide how hot, cold, wet, or windy it might be!

Date:

Astronomy

Jan. 02, 2014 Rise Set
Actual Time 7:19 AM EST 5:00 PM EST
Civil Twilight 6:50 AM EST 5:29 PM EST
Nautical Twilight 6:17 AM EST 6:01 PM EST
Astronomical Twilight 5:46 AM EST 6:33 PM EST
Moon 8:01 AM EST (1/2) 6:51 PM EST (1/2)
Length of Visible Light 10h 38m
Length of Day
9h 41m
New Moon, 2% of the Moon is Illuminated
Jan 2
New Moon
Jan 7
First Quarter
Jan 15
Full
Jan 24
Last Quarter
Jan 30
New

Hourly Weather History & Observations

Time (EST) Temp. Windchill Dew Point Humidity Pressure Visibility Wind Dir Wind Speed Gust Speed Precip Events Conditions
12:58 AM 36.9 °F - 36.5 °F 99% 30.16 in 10.0 mi South 2.3 mph - N/A   Overcast
1:03 AM 37.4 °F 34.9 °F 35.6 °F 93% 30.13 in 10.0 mi South 3.5 mph - N/A   Overcast
1:18 AM 37.4 °F - 35.6 °F 93% 30.13 in 10.0 mi South 2.3 mph - N/A   Overcast
1:58 AM 38.8 °F - 38.7 °F 99% 30.14 in 10.0 mi Calm Calm - N/A   Overcast
2:53 AM 41.0 °F 39.0 °F 39.2 °F 93% 30.11 in 10.0 mi South 3.5 mph - N/A   Overcast
2:58 AM 40.1 °F 38.0 °F 39.9 °F 99% 30.12 in 10.0 mi South 3.5 mph - N/A   Overcast
3:43 AM 41.0 °F - 37.4 °F 87% 30.07 in 10.0 mi WNW 2.3 mph - N/A   Mostly Cloudy
3:48 AM 41.0 °F - 37.4 °F 87% 30.07 in 10.0 mi WNW 2.3 mph - N/A   Scattered Clouds
3:58 AM 39.9 °F - 37.9 °F 93% 30.09 in 10.0 mi Calm Calm - N/A   Scattered Clouds
4:58 AM 38.3 °F - 37.9 °F 99% 30.06 in 10.0 mi Calm Calm - N/A   Clear
5:58 AM 38.5 °F - 37.9 °F 98% 30.04 in 10.0 mi East 2.3 mph - N/A   Overcast
6:58 AM 39.0 °F 36.8 °F 37.0 °F 93% 30.03 in 10.0 mi ESE 3.5 mph - N/A   Mostly Cloudy
7:58 AM 40.5 °F 36.5 °F 36.3 °F 85% 30.01 in 10.0 mi SSE 5.8 mph - N/A   Mostly Cloudy
8:58 AM 42.3 °F - 37.0 °F 82% 29.99 in 10.0 mi Calm Calm - N/A   Overcast
9:58 AM 43.7 °F - 38.3 °F 81% 29.96 in 10.0 mi Calm Calm - N/A   Partly Cloudy
10:58 AM 44.8 °F - 36.5 °F 73% 29.94 in 10.0 mi Calm Calm - N/A   Mostly Cloudy
11:58 AM 46.2 °F - 35.2 °F 66% 29.88 in 10.0 mi SE 2.3 mph - N/A   Overcast
12:58 PM 46.0 °F 43.9 °F 34.5 °F 64% 29.83 in 10.0 mi SSE 4.6 mph - N/A   Partly Cloudy
1:58 PM 46.8 °F - 32.5 °F 58% 29.79 in 10.0 mi South 5.8 mph - N/A   Overcast
2:48 PM 46.4 °F 42.4 °F 32.0 °F 57% 29.75 in 10.0 mi South 8.1 mph - N/A   Overcast
2:58 PM 47.1 °F - 32.4 °F 57% 29.77 in 10.0 mi South 6.9 mph - N/A   Overcast
3:48 PM 48.2 °F - 35.6 °F 62% 29.71 in 10.0 mi SSE 3.5 mph - N/A   Overcast
3:58 PM 47.5 °F - 34.5 °F 61% 29.72 in 10.0 mi SE 4.6 mph - N/A   Overcast
4:23 PM 46.4 °F 44.3 °F 32.0 °F 57% 29.70 in 10.0 mi South 4.6 mph - N/A   Overcast
4:58 PM 46.8 °F - 34.5 °F 62% 29.71 in 10.0 mi SSW 3.5 mph - N/A   Overcast
5:06 PM 46.4 °F 45.2 °F 35.6 °F 66% 29.69 in 10.0 mi WSW 3.5 mph - N/A Rain Light Rain
5:16 PM 46.4 °F 43.5 °F 37.4 °F 71% 29.69 in 7.0 mi West 5.8 mph - N/A Rain Light Rain
5:21 PM 44.6 °F 41.4 °F 39.2 °F 81% 29.69 in 6.0 mi WNW 5.8 mph - N/A Rain Light Rain
5:23 PM 44.6 °F 40.7 °F 39.2 °F 81% 29.69 in 5.0 mi WNW 6.9 mph - N/A Rain Light Rain
5:28 PM 42.8 °F 38.6 °F 41.0 °F 93% 29.69 in 4.0 mi WNW 6.9 mph - N/A Rain Light Rain
5:33 PM 42.8 °F 40.1 °F 41.0 °F 93% 29.68 in 4.0 mi WNW 4.6 mph - N/A Rain Light Rain
5:38 PM 42.8 °F 40.1 °F 42.8 °F 100% 29.68 in 3.0 mi WNW 4.6 mph - N/A Rain Light Rain
5:48 PM 42.8 °F 41.1 °F 42.8 °F 100% 29.67 in 3.0 mi NW 3.5 mph - N/A Rain Light Rain
5:58 PM 42.3 °F 40.5 °F 42.1 °F 99% 29.68 in 3.0 mi NNW 3.5 mph - 0.00 in Rain Light Rain
6:03 PM 42.8 °F 41.1 °F 41.0 °F 93% 29.66 in 3.0 mi NNW 3.5 mph - N/A Rain Light Rain
6:23 PM 41.0 °F - 41.0 °F 100% 29.65 in 3.0 mi East 2.3 mph - N/A Rain Light Rain
6:28 PM 41.0 °F 38.0 °F 41.0 °F 100% 29.65 in 2.5 mi East 4.6 mph - N/A Rain Light Rain
6:33 PM 41.0 °F 37.1 °F 41.0 °F 100% 29.64 in 2.0 mi East 5.8 mph - N/A Rain Light Rain
6:38 PM 41.0 °F 37.1 °F 41.0 °F 100% 29.63 in 1.8 mi East 5.8 mph - N/A Rain Light Rain
6:48 PM 41.0 °F 37.1 °F 41.0 °F 100% 29.63 in 1.5 mi East 5.8 mph - N/A Rain Light Rain
6:58 PM 41.9 °F 39.0 °F 41.9 °F 100% 29.64 in 1.2 mi East 4.6 mph - 0.04 in Rain Light Rain
7:03 PM 41.0 °F 39.0 °F 41.0 °F 100% 29.62 in 1.5 mi East 3.5 mph - N/A Rain Light Rain
7:18 PM 41.0 °F - 41.0 °F 100% 29.62 in 1.2 mi ENE 2.3 mph - N/A Rain Light Rain
7:23 PM 41.0 °F - 41.0 °F 100% 29.61 in 1.2 mi East 2.3 mph - N/A Rain Light Rain
7:28 PM 41.0 °F - 41.0 °F 100% 29.62 in 1.5 mi Calm Calm - N/A Rain Light Rain
7:33 PM 41.0 °F - 41.0 °F 100% 29.61 in 1.2 mi Calm Calm - N/A Rain Light Rain
7:38 PM 42.8 °F - 42.8 °F 100% 29.61 in 1.2 mi NE 2.3 mph - N/A Rain Light Rain
7:40 PM 42.8 °F - 42.8 °F 100% 29.61 in 1.2 mi NNE 2.3 mph - N/A Rain Rain
7:50 PM 41.0 °F 39.0 °F 41.0 °F 100% 29.60 in 1.2 mi North 3.5 mph - N/A Rain Rain
7:55 PM 41.0 °F 39.0 °F 41.0 °F 100% 29.60 in 1.2 mi NNE 3.5 mph - N/A Rain Rain
7:58 PM 41.7 °F 38.8 °F 41.7 °F 100% 29.62 in 1.5 mi NNE 4.6 mph - 0.10 in Rain Rain
8:03 PM 41.0 °F 38.0 °F 41.0 °F 100% 29.61 in 1.5 mi North 4.6 mph - N/A Rain Rain
8:23 PM 41.0 °F 38.0 °F 41.0 °F 100% 29.61 in 1.8 mi NNW 4.6 mph - N/A Rain Rain
8:28 PM 41.0 °F 39.0 °F 41.0 °F 100% 29.61 in 2.0 mi NNW 3.5 mph - N/A Rain Rain
8:33 PM 41.0 °F - 41.0 °F 100% 29.60 in 2.0 mi NNW 1.2 mph - N/A Rain Light Rain
8:38 PM 41.0 °F - 41.0 °F 100% 29.60 in 1.8 mi North 2.3 mph - N/A Rain Rain
8:43 PM 41.0 °F - 41.0 °F 100% 29.60 in 1.8 mi NNW 2.3 mph - N/A Rain Rain
8:53 PM 41.0 °F 39.0 °F 41.0 °F 100% 29.59 in 2.0 mi NNW 3.5 mph - N/A Rain Light Rain
8:58 PM 41.0 °F 39.0 °F 41.0 °F 100% 29.60 in 2.0 mi NNW 3.5 mph - 0.10 in Rain Light Rain
9:13 PM 41.0 °F 39.0 °F 41.0 °F 100% 29.59 in 2.5 mi NW 3.5 mph - N/A Rain Light Rain
9:15 PM 41.0 °F 38.0 °F 41.0 °F 100% 29.59 in 2.5 mi WNW 4.6 mph - N/A Rain Light Rain
9:20 PM 41.0 °F 37.1 °F 41.0 °F 100% 29.59 in 2.0 mi NW 5.8 mph - N/A Rain Light Rain
9:25 PM 41.0 °F 38.0 °F 41.0 °F 100% 29.58 in 1.5 mi NW 4.6 mph - N/A Rain Rain
9:37 PM 41.0 °F 37.1 °F 41.0 °F 100% 29.57 in 1.8 mi North 5.8 mph - N/A Rain Light Rain
9:42 PM 41.0 °F 36.4 °F 41.0 °F 100% 29.57 in 2.5 mi NNW 6.9 mph - N/A Rain Light Rain
9:47 PM 41.0 °F 36.4 °F 41.0 °F 100% 29.57 in 3.0 mi NW 6.9 mph - N/A Rain Light Rain
9:52 PM 41.0 °F 36.4 °F 41.0 °F 100% 29.57 in 3.0 mi NNW 6.9 mph - N/A Rain Light Rain
9:58 PM 41.0 °F 36.4 °F 41.0 °F 100% 29.59 in 3.0 mi NW 6.9 mph - 0.06 in Rain Rain
10:03 PM 41.0 °F 38.0 °F 41.0 °F 100% 29.57 in 3.0 mi NNW 4.6 mph - N/A Rain Light Rain
10:06 PM 41.0 °F 37.1 °F 41.0 °F 100% 29.56 in 2.5 mi NNW 5.8 mph - N/A Rain Rain
10:11 PM 41.0 °F 37.1 °F 41.0 °F 100% 29.56 in 3.0 mi NNW 5.8 mph - N/A Rain Light Rain
10:21 PM 41.0 °F 37.1 °F 41.0 °F 100% 29.55 in 3.0 mi NNW 5.8 mph - N/A Rain Rain
10:26 PM 41.0 °F 35.8 °F 41.0 °F 100% 29.54 in 3.0 mi NNW 8.1 mph - N/A Rain Light Rain
10:58 PM 41.4 °F 36.2 °F 41.4 °F 100% 29.57 in 3.0 mi NW 8.1 mph - 0.10 in Rain Light Rain
11:03 PM 41.0 °F 35.8 °F 41.0 °F 100% 29.54 in 3.0 mi NW 8.1 mph - N/A Rain Rain
11:08 PM 41.0 °F 36.4 °F 41.0 °F 100% 29.54 in 3.0 mi NW 6.9 mph - N/A Rain Rain
11:18 PM 41.0 °F 37.1 °F 41.0 °F 100% 29.53 in 3.0 mi NW 5.8 mph - N/A Rain Rain
11:43 PM 41.0 °F 35.8 °F 41.0 °F 100% 29.51 in 4.0 mi North 8.1 mph - N/A Rain Light Rain
11:58 PM 41.0 °F 35.2 °F 41.0 °F 100% 29.53 in 6.0 mi NNW 9.2 mph - 0.08 in Rain Light Rain